Hourly Weather Suhaya Buyvola

Today, 22 January, Friday

Time Temperature Precipitation Wind Pressure Humidity
00:00 -5°C° 0 mm 3 mps 746 mmHg 73%
01:00 -5°C° 0 mm 3 mps 746 mmHg 72%
02:00 -5°C° 0 mm 3 mps 745 mmHg 70%
03:00 -5°C° 0 mm 3 mps 745 mmHg 69%
04:00 -5°C° 0 mm 3 mps 745 mmHg 68%
05:00 -4°C° 0 mm 2 mps 745 mmHg 68%
06:00 -4°C° 0 mm 2 mps 745 mmHg 67%
07:00 -3°C° 0 mm 2 mps 745 mmHg 66%
08:00 -3°C° 0 mm 2 mps 745 mmHg 65%
09:00 -2°C° 0 mm 2 mps 745 mmHg 64%
10:00 -1°C° 0 mm 2 mps 745 mmHg 65%
11:00 +2°C° 0 mm 1 mps 745 mmHg 66%
12:00 +4°C° 0 mm 1 mps 745 mmHg 67%
13:00 +4°C° 0 mm 1 mps 745 mmHg 67%
14:00 +4°C° 0 mm 1 mps 744 mmHg 68%
15:00 +4°C° 0 mm 1 mps 744 mmHg 68%
16:00 +3°C° 0 mm 1 mps 744 mmHg 66%
17:00 +2°C° 0 mm 1 mps 744 mmHg 65%
18:00 -1°C° 0 mm 2 mps 744 mmHg 63%
19:00 -1°C° 0 mm 2 mps 744 mmHg 64%
20:00 -1°C° 0 mm 2 mps 744 mmHg 64%
21:00 -1°C° 0 mm 2 mps 744 mmHg 65%
22:00 -1°C° 0 mm 3 mps 744 mmHg 65%
23:00 -1°C° 0 mm 3 mps 744 mmHg 66%

Tomorrow, 23 January, Saturday

Time Temperature Precipitation Wind Pressure Humidity
00:00 -2°C° 0 mm 3 mps 744 mmHg 67%
01:00 -2°C° 0 mm 3 mps 743 mmHg 68%
02:00 -2°C° 0 mm 3 mps 743 mmHg 69%
03:00 -2°C° 0 mm 3 mps 743 mmHg 69%
04:00 -2°C° 0 mm 3 mps 743 mmHg 70%
05:00 -2°C° 0 mm 3 mps 743 mmHg 71%
06:00 -2°C° 0 mm 3 mps 743 mmHg 72%
07:00 -3°C° 0 mm 4 mps 743 mmHg 72%
08:00 -2°C° 0 mm 4 mps 743 mmHg 72%
09:00 -2°C° 0 mm 4 mps 743 mmHg 73%
10:00 -1°C° 0 mm 5 mps 743 mmHg 69%
11:00 0°C° 0 mm 5 mps 743 mmHg 65%
12:00 +1°C° 0 mm 6 mps 743 mmHg 61%
13:00 +1°C° 0 mm 5 mps 742 mmHg 60%
14:00 +1°C° 0 mm 5 mps 742 mmHg 59%
15:00 +1°C° 0 mm 4 mps 742 mmHg 58%
16:00 0°C° 0 mm 4 mps 742 mmHg 63%
17:00 -1°C° 0 mm 4 mps 742 mmHg 67%
18:00 -2°C° 0 mm 4 mps 742 mmHg 71%
19:00 -2°C° 0 mm 4 mps 742 mmHg 74%
20:00 -2°C° 0 mm 4 mps 742 mmHg 76%
21:00 -2°C° 0 mm 4 mps 742 mmHg 79%
22:00 -2°C° 0 mm 4 mps 742 mmHg 82%
23:00 -2°C° 0 mm 4 mps 742 mmHg 85%

Day after tomorrow, 24 January, Sunday

Time Temperature Precipitation Wind Pressure Humidity
00:00 -3°C° 0 mm 4 mps 742 mmHg 87%
01:00 -3°C° 0 mm 4 mps 741 mmHg 89%
02:00 -2°C° 0 mm 3 mps 741 mmHg 90%
03:00 -2°C° 0 mm 3 mps 741 mmHg 91%
04:00 -2°C° 0 mm 3 mps 740 mmHg 92%
05:00 -2°C° 0 mm 3 mps 740 mmHg 92%
06:00 -2°C° 0 mm 3 mps 740 mmHg 92%
07:00 -2°C° 0 mm 3 mps 740 mmHg 91%
08:00 -2°C° 0 mm 3 mps 740 mmHg 90%
09:00 -2°C° 0 mm 3 mps 740 mmHg 90%
10:00 -1°C° 0 mm 3 mps 740 mmHg 87%
11:00 0°C° 0 mm 3 mps 739 mmHg 84%
12:00 +1°C° 0 mm 3 mps 739 mmHg 81%
13:00 +1°C° 0 mm 3 mps 739 mmHg 82%
14:00 0°C° 0 mm 4 mps 738 mmHg 83%
15:00 0°C° 0 mm 4 mps 738 mmHg 84%
16:00 -1°C° 0 mm 4 mps 738 mmHg 88%
17:00 -2°C° 0 mm 4 mps 738 mmHg 91%
18:00 -3°C° 0 mm 4 mps 738 mmHg 94%
19:00 -3°C° 0 mm 4 mps 738 mmHg 94%
20:00 -3°C° 0 mm 4 mps 738 mmHg 94%
21:00 -3°C° 0 mm 4 mps 738 mmHg 94%
22:00 -3°C° 0 mm 4 mps 738 mmHg 92%
23:00 -3°C° 0 mm 4 mps 738 mmHg 89%

25 January, Monday

Time Temperature Precipitation Wind Pressure Humidity
00:00 -3°C° 0 mm 4 mps 738 mmHg 87%
01:00 -2°C° 0 mm 3 mps 738 mmHg 86%
02:00 -2°C° 0 mm 3 mps 738 mmHg 85%
03:00 -2°C° 0 mm 3 mps 738 mmHg 84%
04:00 -2°C° 0 mm 3 mps 738 mmHg 83%
05:00 -2°C° 0 mm 3 mps 738 mmHg 82%
06:00 -2°C° 0 mm 2 mps 738 mmHg 81%
07:00 -1°C° 0 mm 2 mps 738 mmHg 78%
08:00 -1°C° 0 mm 2 mps 738 mmHg 76%
09:00 +1°C° 0 mm 2 mps 738 mmHg 73%
10:00 +2°C° 0 mm 2 mps 738 mmHg 70%
11:00 +3°C° 0 mm 2 mps 738 mmHg 67%
12:00 +4°C° 0 mm 2 mps 737 mmHg 64%
13:00 +4°C° 0 mm 2 mps 737 mmHg 66%
14:00 +3°C° 0 mm 3 mps 737 mmHg 68%
15:00 +3°C° 0 mm 3 mps 737 mmHg 70%
16:00 +2°C° 0 mm 3 mps 737 mmHg 75%
17:00 0°C° 0 mm 3 mps 737 mmHg 81%
18:00 -1°C° 0 mm 3 mps 736 mmHg 86%
19:00 -2°C° 0 mm 4 mps 736 mmHg 86%
20:00 -2°C° 0 mm 4 mps 736 mmHg 86%
21:00 -2°C° 0 mm 4 mps 736 mmHg 86%
22:00 -2°C° 0 mm 4 mps 736 mmHg 85%
23:00 -2°C° 0 mm 4 mps 736 mmHg 84%

26 January, Tuesday

Time Temperature Precipitation Wind Pressure Humidity
00:00 -1°C° 0 mm 3 mps 736 mmHg 83%
01:00 -1°C° 0 mm 3 mps 736 mmHg 83%
02:00 -1°C° 0 mm 3 mps 736 mmHg 83%
03:00 -1°C° 0 mm 3 mps 736 mmHg 82%
04:00 -1°C° 0 mm 3 mps 736 mmHg 82%
05:00 -1°C° 0 mm 3 mps 736 mmHg 81%
06:00 -1°C° 0 mm 3 mps 736 mmHg 81%
07:00 -1°C° 0 mm 3 mps 736 mmHg 78%
08:00 0°C° 0 mm 3 mps 736 mmHg 76%
09:00 0°C° 0 mm 3 mps 736 mmHg 74%
10:00 +1°C° 0 mm 3 mps 736 mmHg 72%
11:00 +2°C° 0 mm 3 mps 736 mmHg 69%
12:00 +3°C° 0 mm 4 mps 735 mmHg 67%
13:00 +3°C° 0 mm 4 mps 735 mmHg 69%
14:00 +3°C° 0 mm 4 mps 735 mmHg 70%
15:00 +3°C° 0 mm 4 mps 735 mmHg 72%
16:00 +1°C° 0 mm 4 mps 735 mmHg 76%
17:00 0°C° 0 mm 4 mps 735 mmHg 79%
18:00 -1°C° 0 mm 4 mps 735 mmHg 83%
19:00 0°C° 0 mm 3 mps 736 mmHg 82%
20:00 +1°C° 0 mm 2 mps 736 mmHg 82%
21:00 +2°C° 0 mm 1 mps 736 mmHg 82%
22:00 +2°C° 0 mm 1 mps 736 mmHg 78%
23:00 +3°C° 0 mm 1 mps 737 mmHg 74%

27 January, Wednesday

Time Temperature Precipitation Wind Pressure Humidity
00:00 +3°C° 0 mm 1 mps 737 mmHg 70%
01:00 +3°C° 0 mm 1 mps 737 mmHg 71%
02:00 +3°C° 0 mm 0 mps 737 mmHg 73%
03:00 +3°C° 0 mm 0 mps 737 mmHg 74%
04:00 +3°C° 0 mm 1 mps 736 mmHg 76%
05:00 +3°C° 0 mm 1 mps 736 mmHg 79%
06:00 +3°C° 0 mm 1 mps 735 mmHg 81%
07:00 +3°C° 0 mm 1 mps 735 mmHg 81%
08:00 +2°C° 0 mm 2 mps 735 mmHg 81%
09:00 +2°C° 0 mm 2 mps 735 mmHg 81%
10:00 +1°C° 0 mm 3 mps 734 mmHg 84%
11:00 +1°C° 0 mm 3 mps 734 mmHg 86%
12:00 0°C° 0 mm 4 mps 733 mmHg 89%
13:00 0°C° 0 mm 4 mps 733 mmHg 89%
14:00 +1°C° 0 mm 3 mps 732 mmHg 90%
15:00 +1°C° 0 mm 3 mps 732 mmHg 90%
16:00 +1°C° 0 mm 3 mps 732 mmHg 91%
17:00 +1°C° 0 mm 3 mps 732 mmHg 91%
18:00 0°C° 0 mm 3 mps 731 mmHg 92%
19:00 +1°C° 0 mm 2 mps 731 mmHg 92%
20:00 +1°C° 0 mm 2 mps 731 mmHg 92%
21:00 +1°C° 0 mm 2 mps 731 mmHg 93%
22:00 +1°C° 0 mm 2 mps 730 mmHg 94%
23:00 -1°C° 0 mm 2 mps 729 mmHg 95%
Show more